Flag for Canada Weather past 2 weeks in Calgary, Alberta, Canada

Now
43 °F

Partly sunny.


Feels Like: 34 °F
Forecast: 39 / 52 °F
Wind: 18 mph from North

Location: Calgary International

Current Time: Apr 18, 2015 at 12:03:33 PM

Latest Report: Apr 18, 2015 at 11:00 AM


Visibility: 30 mi

Pressure: 30.37 "Hg

Humidity: 42%

Dew point: 21 °F

Location of CalgaryLocation

Historic Weather in Calgary — Graph

°F

Calgary temperature yesterday

Maximum temperature yesterday: 70 °F (at 3:00 PM)
Minimum temperature yesterday: 34 °F (at 4:00 AM)
Average temperature yesterday: 51 °F

Past Weeks' High & Low Weather Summary

 TemperatureHumidityPressure
High70 °F (Apr 17, 3:00 PM)93% (Apr 4, 8:00 AM)30.37 "Hg (Apr 4, 8:00 AM)
Low18 °F (Apr 7, 5:00 AM)10% (Apr 8, 4:00 PM)29.33 "Hg (Apr 11, 12:00 PM)
Average40 °F50%29.98 "Hg
* Reported Apr 3 11:00 AM — Apr 18 11:00 AM, Calgary, Weather by CustomWeather, © 2015

Note: Actual official high and low records may vary slightly from our data, if they occured in-between our weather recording intervals... More about our weather records

Advertising

Calgary weather history for previous 24 hours

 ConditionsComfort  
Time TempWeatherWind HumidityBarometerVisibility
11:00 AM
Sat, Apr 18
43 °FPartly sunny.18 mph42%30.37 "Hg30 mi
10:00 AM39 °FPartly sunny.16 mph52%30.35 "Hg20 mi
9:00 AM39 °FOvercast.18 mph52%30.34 "Hg20 mi
8:00 AM37 °FOvercast.13 mph60%30.32 "Hg20 mi
7:00 AM36 °FPassing clouds.10 mph70%30.29 "Hg20 mi
6:00 AM37 °FPassing clouds.9 mph75%30.27 "Hg15 mi
5:00 AM37 °FPassing clouds.12 mph81%30.24 "Hg15 mi
4:00 AM36 °FLight rain. Overcast.10 mph93%30.22 "Hg5 mi
3:46 AM36 °FLight rain. Overcast.14 mph87%30.22 "Hg5 mi
3:00 AM37 °FLight rain. Fog.20 mph87%30.19 "Hg5 mi
2:00 AM39 °FLight rain. Fog.20 mph87%30.17 "Hg5 mi
1:00 AM46 °FScattered showers. Passing clouds.16 mph53%30.11 "Hg15 mi
12:00 AM43 °FPassing clouds.8 mph57%30.06 "Hg15 mi
11:00 PM
Fri, Apr 17
43 °FPassing clouds.7 mph39%30.05 "Hg15 mi
10:00 PM54 °FPassing clouds.8 mph26%30.02 "Hg15 mi
9:00 PM54 °FPassing clouds.13 mph28%30.00 "Hg15 mi
8:00 PM59 °FPassing clouds.12 mph23%29.97 "Hg30 mi
7:00 PM63 °FPartly sunny.20 mph19%29.96 "Hg40 mi
6:00 PM63 °FBroken clouds.24 mph24%29.97 "Hg40 mi
5:00 PM66 °FBroken clouds.29 mph19%29.95 "Hg40 mi
4:00 PM68 °FScattered clouds.14 mph18%29.94 "Hg40 mi
3:00 PM70 °FPartly sunny.12 mph21%29.95 "Hg40 mi
2:00 PM66 °FPartly sunny.15 mph24%29.98 "Hg40 mi
1:00 PM61 °FPartly sunny.23 mph27%30.03 "Hg40 mi
12:00 PM57 °FPartly sunny.24 mph31%30.07 "Hg40 mi
Weather by CustomWeather, © 2015

See weather overviewHow to use our weather pages